Time,TemperatureF,DewpointF,PressureIn,WindDirection,WindDirectionDegrees,WindSpeedMPH,WindSpeedGustMPH,Humidity,HourlyPrecipIn,Conditions,Clouds,dailyrainin,SoftwareType,DateUTC
2013-01-26 00:00:00,27.7,19.9,30.29,SW,225,4.0,4.0,72,0.00,,,0.00,VWS V14.00,2013-01-26 06:00:00,
2013-01-26 00:05:00,27.7,19.9,30.29,SW,225,3.0,4.0,72,0.00,,,0.00,VWS V14.00,2013-01-26 06:05:00,
2013-01-26 00:10:00,27.7,19.9,30.29,SW,225,2.0,3.0,72,0.00,,,0.00,VWS V14.00,2013-01-26 06:10:00,
2013-01-26 00:15:00,27.6,19.8,30.29,SW,225,1.0,3.0,72,0.00,,,0.00,VWS V14.00,2013-01-26 06:15:00,
2013-01-26 00:20:00,27.5,19.7,30.29,SW,225,1.0,3.0,72,0.00,,,0.00,VWS V14.00,2013-01-26 06:20:00,
2013-01-26 00:25:00,27.3,19.5,30.29,SW,225,1.0,3.0,72,0.00,,,0.00,VWS V14.00,2013-01-26 06:25:00,
2013-01-26 00:30:00,27.2,19.7,30.29,SW,225,2.0,4.0,73,0.00,,,0.00,VWS V14.00,2013-01-26 06:30:00,
2013-01-26 00:35:00,27.2,19.7,30.29,SW,225,0.0,2.0,73,0.00,,,0.00,VWS V14.00,2013-01-26 06:35:00,
2013-01-26 00:40:00,27.1,19.9,30.28,SW,225,0.0,0.0,74,0.00,,,0.00,VWS V14.00,2013-01-26 06:40:00,
2013-01-26 00:45:00,27.1,19.6,30.28,SW,225,0.0,0.0,73,0.00,,,0.00,VWS V14.00,2013-01-26 06:45:00,
2013-01-26 00:50:00,27.0,19.8,30.28,SW,225,0.0,0.0,74,0.00,,,0.00,VWS V14.00,2013-01-26 06:50:00,
2013-01-26 00:55:00,26.8,19.6,30.28,SW,225,0.0,0.0,74,0.00,,,0.00,VWS V14.00,2013-01-26 06:55:00,
2013-01-26 01:00:00,26.7,19.5,30.28,SW,225,0.0,0.0,74,0.00,,,0.00,VWS V14.00,2013-01-26 07:00:00,
2013-01-26 01:05:00,26.7,19.9,30.28,SW,225,0.0,0.0,75,0.00,,,0.00,VWS V14.00,2013-01-26 07:05:00,
2013-01-26 01:10:00,26.7,19.5,30.28,SW,225,0.0,0.0,74,0.00,,,0.00,VWS V14.00,2013-01-26 07:10:00,
2013-01-26 01:15:00,26.7,19.9,30.28,SW,225,0.0,0.0,75,0.00,,,0.00,VWS V14.00,2013-01-26 07:15:00,
2013-01-26 01:20:00,26.8,19.6,30.29,SW,225,0.0,0.0,74,0.00,,,0.00,VWS V14.00,2013-01-26 07:20:00,
2013-01-26 01:25:00,26.6,19.4,30.29,SW,225,0.0,0.0,74,0.00,,,0.00,VWS V14.00,2013-01-26 07:25:00,
2013-01-26 01:30:00,26.6,19.8,30.29,SW,225,0.0,0.0,75,0.00,,,0.00,VWS V14.00,2013-01-26 07:30:00,
2013-01-26 01:35:00,26.5,19.4,30.29,SW,225,0.0,0.0,74,0.00,,,0.00,VWS V14.00,2013-01-26 07:35:00,
2013-01-26 01:40:00,26.3,19.1,30.29,SW,225,1.0,3.0,74,0.00,,,0.00,VWS V14.00,2013-01-26 07:40:00,
2013-01-26 01:45:00,26.0,18.9,30.30,SW,225,2.0,3.0,74,0.00,,,0.00,VWS V14.00,2013-01-26 07:45:00,
2013-01-26 01:50:00,25.8,19.3,30.29,SW,225,1.0,2.0,76,0.00,,,0.00,VWS V14.00,2013-01-26 07:50:00,
2013-01-26 01:55:00,25.8,19.6,30.30,SW,225,0.0,0.0,77,0.00,,,0.00,VWS V14.00,2013-01-26 07:55:00,
2013-01-26 02:00:00,25.7,19.5,30.30,SW,225,0.0,0.0,77,0.00,,,0.00,VWS V14.00,2013-01-26 08:00:00,
2013-01-26 02:05:00,25.4,19.2,30.29,SW,225,0.0,0.0,77,0.00,,,0.00,VWS V14.00,2013-01-26 08:05:00,
2013-01-26 02:10:00,25.1,18.9,30.30,SW,225,0.0,0.0,77,0.00,,,0.00,VWS V14.00,2013-01-26 08:10:00,
2013-01-26 02:15:00,25.0,19.1,30.29,SW,225,0.0,0.0,78,0.00,,,0.00,VWS V14.00,2013-01-26 08:15:00,
2013-01-26 02:20:00,25.0,19.1,30.29,SW,225,0.0,0.0,78,0.00,,,0.00,VWS V14.00,2013-01-26 08:20:00,
2013-01-26 02:25:00,25.1,19.2,30.29,SW,225,0.0,0.0,78,0.00,,,0.00,VWS V14.00,2013-01-26 08:25:00,
2013-01-26 02:30:00,25.1,19.5,30.29,SW,225,0.0,0.0,79,0.00,,,0.00,VWS V14.00,2013-01-26 08:30:00,
2013-01-26 02:35:00,25.3,19.7,30.29,SW,225,0.0,0.0,79,0.00,,,0.00,VWS V14.00,2013-01-26 08:35:00,
2013-01-26 02:40:00,25.4,19.8,30.30,SW,225,0.0,0.0,79,0.00,,,0.00,VWS V14.00,2013-01-26 08:40:00,
2013-01-26 02:45:00,25.5,19.9,30.29,SW,225,0.0,0.0,79,0.00,,,0.00,VWS V14.00,2013-01-26 08:45:00,
2013-01-26 02:50:00,25.7,20.1,30.29,SW,225,0.0,0.0,79,0.00,,,0.00,VWS V14.00,2013-01-26 08:50:00,
2013-01-26 02:55:00,25.8,20.2,30.30,SW,225,0.0,0.0,79,0.00,,,0.00,VWS V14.00,2013-01-26 08:55:00,
2013-01-26 03:00:00,25.8,19.9,30.30,SW,225,0.0,0.0,78,0.00,,,0.00,VWS V14.00,2013-01-26 09:00:00,
2013-01-26 03:05:00,25.5,19.6,30.29,SW,225,2.0,4.0,78,0.00,,,0.00,VWS V14.00,2013-01-26 09:05:00,
2013-01-26 03:10:00,25.1,19.2,30.29,SW,225,3.0,5.0,78,0.00,,,0.00,VWS V14.00,2013-01-26 09:10:00,
2013-01-26 03:15:00,24.9,19.3,30.30,NE,45,2.0,4.0,79,0.00,,,0.00,VWS V14.00,2013-01-26 09:15:00,
2013-01-26 03:20:00,24.8,19.5,30.29,NE,45,2.0,4.0,80,0.00,,,0.00,VWS V14.00,2013-01-26 09:20:00,
2013-01-26 03:25:00,24.8,19.5,30.30,NE,45,3.0,4.0,80,0.00,,,0.00,VWS V14.00,2013-01-26 09:25:00,
2013-01-26 03:30:00,24.8,19.5,30.30,NE,45,2.0,3.0,80,0.00,,,0.00,VWS V14.00,2013-01-26 09:30:00,
2013-01-26 03:35:00,24.9,19.6,30.30,NE,45,1.0,3.0,80,0.00,,,0.00,VWS V14.00,2013-01-26 09:35:00,
2013-01-26 03:40:00,25.2,19.9,30.30,NE,45,0.0,2.0,80,0.00,,,0.00,VWS V14.00,2013-01-26 09:40:00,
2013-01-26 03:45:00,25.3,20.0,30.29,NE,45,1.0,2.0,80,0.00,,,0.00,VWS V14.00,2013-01-26 09:45:00,
2013-01-26 03:50:00,25.4,20.1,30.29,NE,45,0.0,1.0,80,0.00,,,0.00,VWS V14.00,2013-01-26 09:50:00,
2013-01-26 03:55:00,25.6,20.3,30.30,NE,45,0.0,1.0,80,0.00,,,0.00,VWS V14.00,2013-01-26 09:55:00,
2013-01-26 04:00:00,25.5,19.6,30.30,NE,45,0.0,0.0,78,0.00,,,0.00,VWS V14.00,2013-01-26 10:00:00,
2013-01-26 04:05:00,25.4,19.8,30.30,NE,45,0.0,0.0,79,0.00,,,0.00,VWS V14.00,2013-01-26 10:05:00,
2013-01-26 04:10:00,25.4,20.1,30.30,NE,45,0.0,0.0,80,0.00,,,0.00,VWS V14.00,2013-01-26 10:10:00,
2013-01-26 04:15:00,25.5,20.5,30.30,NE,45,0.0,0.0,81,0.00,,,0.00,VWS V14.00,2013-01-26 10:15:00,
2013-01-26 04:20:00,25.6,20.3,30.30,NE,45,0.0,0.0,80,0.00,,,0.00,VWS V14.00,2013-01-26 10:20:00,
2013-01-26 04:25:00,25.5,19.9,30.30,NE,45,0.0,0.0,79,0.00,,,0.00,VWS V14.00,2013-01-26 10:25:00,
2013-01-26 04:30:00,25.5,20.5,30.30,NE,45,1.0,4.0,81,0.00,,,0.00,VWS V14.00,2013-01-26 10:30:00,
2013-01-26 04:35:00,25.3,20.3,30.30,NE,45,3.0,4.0,81,0.00,,,0.00,VWS V14.00,2013-01-26 10:35:00,
2013-01-26 04:40:00,25.2,20.2,30.30,NE,45,3.0,5.0,81,0.00,,,0.00,VWS V14.00,2013-01-26 10:40:00,
2013-01-26 04:45:00,25.2,20.2,30.30,NE,45,3.0,4.0,81,0.00,,,0.00,VWS V14.00,2013-01-26 10:45:00,
2013-01-26 04:50:00,25.4,20.4,30.30,NE,45,2.0,5.0,81,0.00,,,0.00,VWS V14.00,2013-01-26 10:50:00,
2013-01-26 04:55:00,25.4,20.1,30.30,NE,45,1.0,3.0,80,0.00,,,0.00,VWS V14.00,2013-01-26 10:55:00,
2013-01-26 05:00:00,25.3,19.7,30.31,NE,45,0.0,3.0,79,0.00,,,0.00,VWS V14.00,2013-01-26 11:00:00,
2013-01-26 05:05:00,25.2,19.6,30.31,NE,45,0.0,0.0,79,0.00,,,0.00,VWS V14.00,2013-01-26 11:05:00,
2013-01-26 05:10:00,25.1,19.5,30.30,NE,45,0.0,2.0,79,0.00,,,0.00,VWS V14.00,2013-01-26 11:10:00,
2013-01-26 05:15:00,25.1,19.8,30.30,NE,45,1.0,2.0,80,0.00,,,0.00,VWS V14.00,2013-01-26 11:15:00,
2013-01-26 05:20:00,25.0,19.4,30.30,NE,45,1.0,2.0,79,0.00,,,0.00,VWS V14.00,2013-01-26 11:20:00,
2013-01-26 05:25:00,25.1,19.8,30.31,NE,45,2.0,3.0,80,0.00,,,0.00,VWS V14.00,2013-01-26 11:25:00,
2013-01-26 05:30:00,25.1,19.8,30.31,NE,45,2.0,4.0,80,0.00,,,0.00,VWS V14.00,2013-01-26 11:30:00,
2013-01-26 05:35:00,25.0,19.7,30.31,NE,45,3.0,4.0,80,0.00,,,0.00,VWS V14.00,2013-01-26 11:35:00,
2013-01-26 05:40:00,24.9,19.6,30.31,NE,45,4.0,5.0,80,0.00,,,0.00,VWS V14.00,2013-01-26 11:40:00,
2013-01-26 05:45:00,24.8,19.8,30.32,NE,45,2.0,4.0,81,0.00,,,0.00,VWS V14.00,2013-01-26 11:45:00,
2013-01-26 05:50:00,25.0,20.6,30.32,NE,45,3.0,4.0,83,0.00,,,0.00,VWS V14.00,2013-01-26 11:50:00,
2013-01-26 05:55:00,25.2,20.8,30.32,NE,45,1.0,3.0,83,0.00,,,0.00,VWS V14.00,2013-01-26 11:55:00,
2013-01-26 06:00:00,25.4,20.7,30.33,NE,45,1.0,2.0,82,0.00,,,0.00,VWS V14.00,2013-01-26 12:00:00,
2013-01-26 06:05:00,25.5,20.8,30.33,NE,45,1.0,3.0,82,0.00,,,0.00,VWS V14.00,2013-01-26 12:05:00,
2013-01-26 06:10:00,25.7,21.5,30.33,NE,45,1.0,3.0,84,0.00,,,0.00,VWS V14.00,2013-01-26 12:10:00,
2013-01-26 06:15:00,25.9,21.7,30.33,NE,45,1.0,4.0,84,0.00,,,0.00,VWS V14.00,2013-01-26 12:15:00,
2013-01-26 06:20:00,26.2,21.8,30.33,NE,45,3.0,4.0,83,0.00,,,0.00,VWS V14.00,2013-01-26 12:20:00,
2013-01-26 06:25:00,26.5,22.0,30.33,ENE,68,4.0,6.0,83,0.00,,,0.00,VWS V14.00,2013-01-26 12:25:00,
2013-01-26 06:30:00,26.6,22.1,30.33,ENE,68,3.0,5.0,83,0.00,,,0.00,VWS V14.00,2013-01-26 12:30:00,
2013-01-26 06:35:00,27.2,22.4,30.33,ENE,68,4.0,6.0,82,0.00,,,0.00,VWS V14.00,2013-01-26 12:35:00,
2013-01-26 06:40:00,27.5,22.5,30.33,ENE,68,4.0,6.0,81,0.00,,,0.00,VWS V14.00,2013-01-26 12:40:00,
2013-01-26 06:45:00,27.6,22.5,30.33,ENE,68,2.0,6.0,81,0.00,,,0.00,VWS V14.00,2013-01-26 12:45:00,
2013-01-26 06:50:00,27.7,22.9,30.33,ENE,68,4.0,6.0,82,0.00,,,0.00,VWS V14.00,2013-01-26 12:50:00,
2013-01-26 06:55:00,27.7,22.9,30.33,ENE,68,4.0,7.0,82,0.00,,,0.00,VWS V14.00,2013-01-26 12:55:00,
2013-01-26 07:00:00,27.8,23.0,30.34,ENE,68,3.0,6.0,82,0.00,,,0.00,VWS V14.00,2013-01-26 13:00:00,
2013-01-26 07:05:00,27.8,22.7,30.34,ENE,68,2.0,5.0,81,0.00,,,0.00,VWS V14.00,2013-01-26 13:05:00,
2013-01-26 07:10:00,28.1,23.0,30.34,ENE,68,2.0,5.0,81,0.00,,,0.00,VWS V14.00,2013-01-26 13:10:00,
2013-01-26 07:15:00,28.3,22.9,30.34,ENE,68,0.0,3.0,80,0.00,,,0.00,VWS V14.00,2013-01-26 13:15:00,
2013-01-26 07:20:00,28.5,22.8,30.34,ENE,68,0.0,5.0,79,0.00,,,0.00,VWS V14.00,2013-01-26 13:20:00,
2013-01-26 07:25:00,28.7,23.3,30.34,ENE,68,3.0,6.0,80,0.00,,,0.00,VWS V14.00,2013-01-26 13:25:00,
2013-01-26 07:30:00,28.7,23.3,30.34,ENE,68,4.0,7.0,80,0.00,,,0.00,VWS V14.00,2013-01-26 13:30:00,
2013-01-26 07:35:00,28.7,23.3,30.35,ENE,68,2.0,5.0,80,0.00,,,0.00,VWS V14.00,2013-01-26 13:35:00,
2013-01-26 07:40:00,28.6,23.2,30.35,ENE,68,1.0,3.0,80,0.00,,,0.00,VWS V14.00,2013-01-26 13:40:00,
2013-01-26 07:45:00,28.6,23.5,30.35,ENE,68,2.0,5.0,81,0.00,,,0.00,VWS V14.00,2013-01-26 13:45:00,
2013-01-26 07:50:00,28.6,23.5,30.35,ENE,68,2.0,3.0,81,0.00,,,0.00,VWS V14.00,2013-01-26 13:50:00,
2013-01-26 07:59:00,28.6,23.5,30.35,ENE,68,2.0,3.0,81,0.00,,,0.00,VWS V14.00,2013-01-26 13:59:00,
2013-01-26 08:00:00,29.1,23.7,30.34,ENE,64,6.0,6.0,80,0.00,,,0.00,VWS V14.00,2013-01-26 14:00:00,
2013-01-26 08:04:00,29.2,23.5,30.34,ENE,70,5.0,6.0,79,0.00,,,0.00,VWS V14.00,2013-01-26 14:04:00,
2013-01-26 08:05:00,29.3,23.9,30.34,ENE,68,2.0,6.0,80,0.00,,,0.00,VWS V14.00,2013-01-26 14:05:00,
2013-01-26 08:09:00,29.3,23.9,30.34,ENE,66,5.0,6.0,80,0.00,,,0.00,VWS V14.00,2013-01-26 14:09:00,
2013-01-26 08:10:00,29.3,23.6,30.34,ENE,70,2.0,6.0,79,0.00,,,0.00,VWS V14.00,2013-01-26 14:10:00,
2013-01-26 08:14:00,29.5,23.8,30.34,NE,56,2.0,5.0,79,0.00,,,0.00,VWS V14.00,2013-01-26 14:14:00,
2013-01-26 08:15:00,29.6,23.6,30.34,ENE,64,6.0,6.0,78,0.00,,,0.00,VWS V14.00,2013-01-26 14:15:00,
2013-01-26 08:19:00,29.8,23.8,30.34,ENE,69,2.0,7.0,78,0.00,,,0.00,VWS V14.00,2013-01-26 14:19:00,
2013-01-26 08:20:00,29.9,23.9,30.34,ENE,60,3.0,7.0,78,0.00,,,0.00,VWS V14.00,2013-01-26 14:20:00,
2013-01-26 08:29:00,30.3,23.7,30.34,ENE,73,3.0,3.0,76,0.00,,,0.00,VWS V14.00,2013-01-26 14:29:00,
2013-01-26 08:30:00,30.4,23.8,30.34,ENE,64,5.0,5.0,76,0.00,,,0.00,VWS V14.00,2013-01-26 14:30:00,
2013-01-26 08:34:00,30.5,23.9,30.34,ENE,70,5.0,6.0,76,0.00,,,0.00,VWS V14.00,2013-01-26 14:34:00,
2013-01-26 08:35:00,30.6,23.6,30.34,ENE,72,3.0,6.0,75,0.00,,,0.00,VWS V14.00,2013-01-26 14:35:00,
2013-01-26 08:39:00,30.7,24.0,30.34,ENE,76,3.0,8.0,76,0.00,,,0.00,VWS V14.00,2013-01-26 14:39:00,
2013-01-26 08:40:00,30.7,24.0,30.34,East,79,2.0,8.0,76,0.00,,,0.00,VWS V14.00,2013-01-26 14:40:00,
2013-01-26 08:44:00,30.9,23.9,30.34,ENE,70,5.0,7.0,75,0.00,,,0.00,VWS V14.00,2013-01-26 14:44:00,
2013-01-26 08:45:00,31.0,24.0,30.34,ENE,68,0.0,7.0,75,0.00,,,0.00,VWS V14.00,2013-01-26 14:45:00,
2013-01-26 08:49:00,31.1,24.1,30.34,ENE,68,2.0,6.0,75,0.00,,,0.00,VWS V14.00,2013-01-26 14:49:00,
2013-01-26 08:50:00,31.1,24.4,30.34,ENE,67,2.0,6.0,76,0.00,,,0.00,VWS V14.00,2013-01-26 14:50:00,
2013-01-26 08:54:00,31.3,24.3,30.33,ENE,68,5.0,5.0,75,0.00,,,0.00,VWS V14.00,2013-01-26 14:54:00,
2013-01-26 08:55:00,31.4,24.4,30.34,ENE,74,2.0,5.0,75,0.00,,,0.00,VWS V14.00,2013-01-26 14:55:00,
2013-01-26 08:59:00,31.5,24.5,30.33,ENE,66,5.0,6.0,75,0.00,,,0.00,VWS V14.00,2013-01-26 14:59:00,
2013-01-26 09:00:00,31.6,24.6,30.34,NE,56,1.0,6.0,75,0.00,,,0.00,VWS V14.00,2013-01-26 15:00:00,
2013-01-26 09:04:00,31.8,24.5,30.34,NE,56,0.0,4.0,74,0.00,,,0.00,VWS V14.00,2013-01-26 15:04:00,
2013-01-26 09:05:00,31.9,24.6,30.34,ENE,66,3.0,5.0,74,0.00,,,0.00,VWS V14.00,2013-01-26 15:05:00,
2013-01-26 09:09:00,32.0,24.7,30.34,ENE,66,0.0,5.0,74,0.00,,,0.00,VWS V14.00,2013-01-26 15:09:00,
2013-01-26 09:10:00,32.1,24.8,30.34,ENE,66,0.0,5.0,74,0.00,,,0.00,VWS V14.00,2013-01-26 15:10:00,
2013-01-26 09:14:00,32.3,24.6,30.34,ENE,68,1.0,2.0,73,0.00,,,0.00,VWS V14.00,2013-01-26 15:14:00,
2013-01-26 09:15:00,32.4,24.7,30.34,ENE,68,0.0,2.0,73,0.00,,,0.00,VWS V14.00,2013-01-26 15:15:00,
2013-01-26 09:19:00,32.6,25.2,30.34,East,86,3.0,4.0,74,0.00,,,0.00,VWS V14.00,2013-01-26 15:19:00,
2013-01-26 09:20:00,32.8,25.1,30.34,East,86,0.0,4.0,73,0.00,,,0.00,VWS V14.00,2013-01-26 15:20:00,
2013-01-26 09:24:00,33.1,25.1,30.34,ENE,70,3.0,5.0,72,0.00,,,0.00,VWS V14.00,2013-01-26 15:24:00,
2013-01-26 09:25:00,33.2,25.2,30.34,ENE,76,0.0,6.0,72,0.00,,,0.00,VWS V14.00,2013-01-26 15:25:00,
2013-01-26 09:29:00,33.5,25.1,30.34,East,83,3.0,4.0,71,0.00,,,0.00,VWS V14.00,2013-01-26 15:29:00,
2013-01-26 09:30:00,33.6,25.2,30.34,East,86,3.0,4.0,71,0.00,,,0.00,VWS V14.00,2013-01-26 15:30:00,
2013-01-26 09:34:00,33.9,25.2,30.34,ENE,69,2.0,4.0,70,0.00,,,0.00,VWS V14.00,2013-01-26 15:34:00,
2013-01-26 09:35:00,33.9,25.2,30.34,ENE,73,3.0,4.0,70,0.00,,,0.00,VWS V14.00,2013-01-26 15:35:00,
2013-01-26 09:39:00,34.2,25.1,30.34,ENE,60,1.0,5.0,69,0.00,,,0.00,VWS V14.00,2013-01-26 15:39:00,
2013-01-26 09:40:00,34.3,25.2,30.34,East,87,0.0,5.0,69,0.00,,,0.00,VWS V14.00,2013-01-26 15:40:00,
2013-01-26 09:44:00,34.5,25.0,30.34,ENE,74,0.0,5.0,68,0.00,,,0.00,VWS V14.00,2013-01-26 15:44:00,
2013-01-26 09:45:00,34.6,25.1,30.34,ENE,71,0.0,5.0,68,0.00,,,0.00,VWS V14.00,2013-01-26 15:45:00,
2013-01-26 09:49:00,34.9,25.4,30.34,NE,50,0.0,5.0,68,0.00,,,0.00,VWS V14.00,2013-01-26 15:49:00,
2013-01-26 09:50:00,35.0,25.5,30.34,ENE,69,3.0,5.0,68,0.00,,,0.00,VWS V14.00,2013-01-26 15:50:00,
2013-01-26 09:54:00,35.4,25.5,30.34,ENE,62,5.0,7.0,67,0.00,,,0.00,VWS V14.00,2013-01-26 15:54:00,
2013-01-26 09:55:00,35.5,25.3,30.34,ESE,112,4.0,7.0,66,0.00,,,0.00,VWS V14.00,2013-01-26 15:55:00,
2013-01-26 09:59:00,36.2,26.3,30.34,ENE,68,7.0,7.0,67,0.00,,,0.00,VWS V14.00,2013-01-26 15:59:00,
2013-01-26 10:00:00,36.4,26.1,30.34,East,88,1.0,7.0,66,0.00,,,0.00,VWS V14.00,2013-01-26 16:00:00,
2013-01-26 10:04:00,37.0,26.3,30.34,ENE,66,2.0,7.0,65,0.00,,,0.00,VWS V14.00,2013-01-26 16:04:00,
2013-01-26 10:05:00,37.3,26.6,30.34,ESE,106,5.0,7.0,65,0.00,,,0.00,VWS V14.00,2013-01-26 16:05:00,
2013-01-26 10:09:00,37.8,26.0,30.34,NE,52,5.0,8.0,62,0.00,,,0.00,VWS V14.00,2013-01-26 16:09:00,
2013-01-26 10:10:00,38.0,26.5,30.34,ENE,66,1.0,10.0,63,0.00,,,0.00,VWS V14.00,2013-01-26 16:10:00,
2013-01-26 10:14:00,38.6,26.3,30.34,East,79,5.0,7.0,61,0.00,,,0.00,VWS V14.00,2013-01-26 16:14:00,
2013-01-26 10:15:00,38.8,26.5,30.34,ENE,62,1.0,10.0,61,0.00,,,0.00,VWS V14.00,2013-01-26 16:15:00,
2013-01-26 10:19:00,39.3,26.6,30.34,East,89,0.0,8.0,60,0.00,,,0.00,VWS V14.00,2013-01-26 16:19:00,
2013-01-26 10:20:00,39.5,26.4,30.34,East,87,4.0,8.0,59,0.00,,,0.00,VWS V14.00,2013-01-26 16:20:00,
2013-01-26 10:24:00,39.8,26.2,30.34,ENE,58,0.0,6.0,58,0.00,,,0.00,VWS V14.00,2013-01-26 16:24:00,
2013-01-26 10:25:00,40.0,26.8,30.35,ENE,71,3.0,6.0,59,0.00,,,0.00,VWS V14.00,2013-01-26 16:25:00,
2013-01-26 10:29:00,40.2,26.2,30.35,East,97,4.0,8.0,57,0.00,,,0.00,VWS V14.00,2013-01-26 16:29:00,
2013-01-26 10:30:00,40.2,26.2,30.34,ENE,72,0.0,8.0,57,0.00,,,0.00,VWS V14.00,2013-01-26 16:30:00,
2013-01-26 10:34:00,40.5,26.5,30.34,ESE,104,1.0,4.0,57,0.00,,,0.00,VWS V14.00,2013-01-26 16:34:00,
2013-01-26 10:35:00,40.6,26.1,30.34,East,81,5.0,7.0,56,0.00,,,0.00,VWS V14.00,2013-01-26 16:35:00,
2013-01-26 10:39:00,40.8,26.3,30.34,East,85,1.0,6.0,56,0.00,,,0.00,VWS V14.00,2013-01-26 16:39:00,
2013-01-26 10:40:00,41.0,27.0,30.34,ENE,72,2.0,7.0,57,0.00,,,0.00,VWS V14.00,2013-01-26 16:40:00,
2013-01-26 10:44:00,41.3,26.8,30.34,ENE,67,1.0,5.0,56,0.00,,,0.00,VWS V14.00,2013-01-26 16:44:00,
2013-01-26 10:45:00,41.5,27.4,30.34,ESE,104,5.0,7.0,57,0.00,,,0.00,VWS V14.00,2013-01-26 16:45:00,
2013-01-26 10:49:00,41.9,26.9,30.34,ESE,112,1.0,5.0,55,0.00,,,0.00,VWS V14.00,2013-01-26 16:49:00,
2013-01-26 10:50:00,42.1,27.5,30.34,ENE,66,3.0,5.0,56,0.00,,,0.00,VWS V14.00,2013-01-26 16:50:00,
2013-01-26 10:54:00,42.7,27.2,30.34,ESE,118,1.0,7.0,54,0.00,,,0.00,VWS V14.00,2013-01-26 16:54:00,
2013-01-26 10:55:00,42.8,26.9,30.34,ENE,71,1.0,7.0,53,0.00,,,0.00,VWS V14.00,2013-01-26 16:55:00,
2013-01-26 10:59:00,43.0,27.0,30.34,East,89,1.0,5.0,53,0.00,,,0.00,VWS V14.00,2013-01-26 16:59:00,
2013-01-26 11:00:00,43.2,27.2,30.34,East,91,4.0,8.0,53,0.00,,,0.00,VWS V14.00,2013-01-26 17:00:00,
2013-01-26 11:04:00,43.5,26.6,30.34,SE,128,1.0,6.0,51,0.00,,,0.00,VWS V14.00,2013-01-26 17:04:00,
2013-01-26 11:05:00,43.7,27.2,30.34,ESE,116,4.0,7.0,52,0.00,,,0.00,VWS V14.00,2013-01-26 17:05:00,
2013-01-26 11:09:00,44.1,27.1,30.34,East,92,4.0,9.0,51,0.00,,,0.00,VWS V14.00,2013-01-26 17:09:00,
2013-01-26 11:10:00,44.2,27.7,30.34,SE,132,3.0,9.0,52,0.00,,,0.00,VWS V14.00,2013-01-26 17:10:00,
2013-01-26 11:14:00,44.7,27.7,30.34,East,99,0.0,8.0,51,0.00,,,0.00,VWS V14.00,2013-01-26 17:14:00,
2013-01-26 11:15:00,45.0,28.0,30.34,ESE,103,7.0,9.0,51,0.00,,,0.00,VWS V14.00,2013-01-26 17:15:00,
2013-01-26 11:19:00,45.5,27.5,30.33,East,89,5.0,8.0,49,0.00,,,0.00,VWS V14.00,2013-01-26 17:19:00,
2013-01-26 11:20:00,45.7,27.6,30.33,East,93,5.0,8.0,49,0.00,,,0.00,VWS V14.00,2013-01-26 17:20:00,
2013-01-26 11:24:00,46.0,27.4,30.34,East,86,7.0,8.0,48,0.00,,,0.00,VWS V14.00,2013-01-26 17:24:00,
2013-01-26 11:25:00,46.1,27.5,30.34,ENE,70,6.0,8.0,48,0.00,,,0.00,VWS V14.00,2013-01-26 17:25:00,
2013-01-26 11:29:00,46.2,27.6,30.33,NE,51,1.0,6.0,48,0.00,,,0.00,VWS V14.00,2013-01-26 17:29:00,
2013-01-26 11:30:00,46.3,27.7,30.33,NE,49,0.0,6.0,48,0.00,,,0.00,VWS V14.00,2013-01-26 17:30:00,
2013-01-26 11:34:00,46.3,27.7,30.33,East,89,2.0,8.0,48,0.00,,,0.00,VWS V14.00,2013-01-26 17:34:00,
2013-01-26 11:35:00,46.3,27.2,30.33,ENE,75,7.0,8.0,47,0.00,,,0.00,VWS V14.00,2013-01-26 17:35:00,
2013-01-26 11:39:00,46.2,27.1,30.33,East,99,8.0,8.0,47,0.00,,,0.00,VWS V14.00,2013-01-26 17:39:00,
2013-01-26 11:40:00,46.3,27.2,30.33,East,83,0.0,8.0,47,0.00,,,0.00,VWS V14.00,2013-01-26 17:40:00,
2013-01-26 11:44:00,46.7,28.1,30.33,ESE,106,3.0,5.0,48,0.00,,,0.00,VWS V14.00,2013-01-26 17:44:00,
2013-01-26 11:45:00,46.9,28.2,30.33,SE,143,1.0,5.0,48,0.00,,,0.00,VWS V14.00,2013-01-26 17:45:00,
2013-01-26 11:49:00,47.5,28.3,30.33,East,97,5.0,8.0,47,0.00,,,0.00,VWS V14.00,2013-01-26 17:49:00,
2013-01-26 11:50:00,47.7,28.0,30.32,East,84,5.0,10.0,46,0.00,,,0.00,VWS V14.00,2013-01-26 17:50:00,
2013-01-26 11:54:00,48.1,28.3,30.32,ENE,70,6.0,8.0,46,0.00,,,0.00,VWS V14.00,2013-01-26 17:54:00,
2013-01-26 11:55:00,48.1,27.2,30.32,NE,54,0.0,8.0,44,0.00,,,0.00,VWS V14.00,2013-01-26 17:55:00,
2013-01-26 11:59:00,48.1,27.2,30.32,ESE,118,1.0,7.0,44,0.00,,,0.00,VWS V14.00,2013-01-26 17:59:00,
2013-01-26 12:00:00,48.1,27.2,30.32,East,95,1.0,7.0,44,0.00,,,0.00,VWS V14.00,2013-01-26 18:00:00,
2013-01-26 12:04:00,47.9,27.0,30.32,ESE,120,0.0,6.0,44,0.00,,,0.00,VWS V14.00,2013-01-26 18:04:00,
2013-01-26 12:05:00,47.8,27.5,30.32,East,101,1.0,8.0,45,0.00,,,0.00,VWS V14.00,2013-01-26 18:05:00,
2013-01-26 12:09:00,47.8,27.5,30.32,ESE,106,1.0,7.0,45,0.00,,,0.00,VWS V14.00,2013-01-26 18:09:00,
2013-01-26 12:10:00,47.9,27.6,30.32,East,85,0.0,7.0,45,0.00,,,0.00,VWS V14.00,2013-01-26 18:10:00,
2013-01-26 12:14:00,48.2,27.3,30.31,ENE,74,7.0,7.0,44,0.00,,,0.00,VWS V14.00,2013-01-26 18:14:00,
2013-01-26 12:15:00,48.5,27.6,30.31,East,86,4.0,8.0,44,0.00,,,0.00,VWS V14.00,2013-01-26 18:15:00,
2013-01-26 12:19:00,49.0,28.0,30.30,East,97,9.0,12.0,44,0.00,,,0.00,VWS V14.00,2013-01-26 18:19:00,
2013-01-26 12:20:00,49.1,27.6,30.30,ESE,107,4.0,12.0,43,0.00,,,0.00,VWS V14.00,2013-01-26 18:20:00,
2013-01-26 12:24:00,49.4,27.9,30.30,ESE,104,1.0,7.0,43,0.00,,,0.00,VWS V14.00,2013-01-26 18:24:00,
2013-01-26 12:25:00,49.5,28.0,30.30,ESE,120,3.0,7.0,43,0.00,,,0.00,VWS V14.00,2013-01-26 18:25:00,
2013-01-26 12:29:00,49.7,28.1,30.30,ESE,122,5.0,7.0,43,0.00,,,0.00,VWS V14.00,2013-01-26 18:29:00,
2013-01-26 12:30:00,49.9,27.7,30.30,East,97,5.0,9.0,42,0.00,,,0.00,VWS V14.00,2013-01-26 18:30:00,
2013-01-26 12:34:00,50.0,27.8,30.29,ESE,117,0.0,9.0,42,0.00,,,0.00,VWS V14.00,2013-01-26 18:34:00,
2013-01-26 12:35:00,50.2,28.0,30.29,East,97,4.0,10.0,42,0.00,,,0.00,VWS V14.00,2013-01-26 18:35:00,
2013-01-26 12:39:00,50.3,28.1,30.29,East,84,8.0,9.0,42,0.00,,,0.00,VWS V14.00,2013-01-26 18:39:00,
2013-01-26 12:40:00,50.3,27.5,30.29,East,98,8.0,10.0,41,0.00,,,0.00,VWS V14.00,2013-01-26 18:40:00,
2013-01-26 12:44:00,50.6,27.8,30.28,ESE,113,4.0,9.0,41,0.00,,,0.00,VWS V14.00,2013-01-26 18:44:00,
2013-01-26 12:45:00,50.7,27.9,30.28,East,89,11.0,12.0,41,0.00,,,0.00,VWS V14.00,2013-01-26 18:45:00,
2013-01-26 12:49:00,50.7,27.9,30.28,ESE,104,4.0,12.0,41,0.00,,,0.00,VWS V14.00,2013-01-26 18:49:00,
2013-01-26 12:50:00,50.7,28.5,30.28,ESE,104,0.0,12.0,42,0.00,,,0.00,VWS V14.00,2013-01-26 18:50:00,
2013-01-26 12:54:00,50.7,27.9,30.28,East,96,3.0,9.0,41,0.00,,,0.00,VWS V14.00,2013-01-26 18:54:00,
2013-01-26 12:55:00,50.7,27.9,30.28,ENE,60,3.0,9.0,41,0.00,,,0.00,VWS V14.00,2013-01-26 18:55:00,
2013-01-26 12:59:00,50.8,27.4,30.27,East,96,7.0,8.0,40,0.00,,,0.00,VWS V14.00,2013-01-26 18:59:00,
2013-01-26 13:00:00,50.8,28.0,30.27,ENE,57,9.0,9.0,41,0.00,,,0.00,VWS V14.00,2013-01-26 19:00:00,
2013-01-26 13:04:00,51.0,28.1,30.27,ESE,105,7.0,11.0,41,0.00,,,0.00,VWS V14.00,2013-01-26 19:04:00,
2013-01-26 13:05:00,51.1,28.2,30.27,ESE,106,0.0,11.0,41,0.00,,,0.00,VWS V14.00,2013-01-26 19:05:00,
2013-01-26 13:09:00,51.7,28.2,30.27,ESE,108,6.0,10.0,40,0.00,,,0.00,VWS V14.00,2013-01-26 19:09:00,
2013-01-26 13:10:00,51.9,28.4,30.27,ENE,74,6.0,10.0,40,0.00,,,0.00,VWS V14.00,2013-01-26 19:10:00,
2013-01-26 13:14:00,52.4,28.2,30.26,ENE,74,8.0,11.0,39,0.00,,,0.00,VWS V14.00,2013-01-26 19:14:00,
2013-01-26 13:15:00,52.5,28.3,30.26,East,89,2.0,11.0,39,0.00,,,0.00,VWS V14.00,2013-01-26 19:15:00,
2013-01-26 13:19:00,52.6,27.7,30.26,East,81,3.0,9.0,38,0.00,,,0.00,VWS V14.00,2013-01-26 19:19:00,
2013-01-26 13:20:00,52.6,27.7,30.26,SE,129,5.0,9.0,38,0.00,,,0.00,VWS V14.00,2013-01-26 19:20:00,
2013-01-26 13:24:00,52.7,28.5,30.26,ESE,112,5.0,10.0,39,0.00,,,0.00,VWS V14.00,2013-01-26 19:24:00,
2013-01-26 13:25:00,52.8,27.9,30.25,SE,130,0.0,10.0,38,0.00,,,0.00,VWS V14.00,2013-01-26 19:25:00,
2013-01-26 13:29:00,53.1,28.2,30.25,East,81,5.0,11.0,38,0.00,,,0.00,VWS V14.00,2013-01-26 19:29:00,
2013-01-26 13:30:00,53.1,27.5,30.25,ESE,105,0.0,11.0,37,0.00,,,0.00,VWS V14.00,2013-01-26 19:30:00,
2013-01-26 13:34:00,53.2,28.3,30.25,East,96,2.0,11.0,38,0.00,,,0.00,VWS V14.00,2013-01-26 19:34:00,
2013-01-26 13:35:00,53.4,28.5,30.25,ESE,116,4.0,11.0,38,0.00,,,0.00,VWS V14.00,2013-01-26 19:35:00,
2013-01-26 13:39:00,53.5,27.9,30.25,East,81,3.0,11.0,37,0.00,,,0.00,VWS V14.00,2013-01-26 19:39:00,
2013-01-26 13:40:00,53.4,28.5,30.24,East,95,10.0,13.0,38,0.00,,,0.00,VWS V14.00,2013-01-26 19:40:00,
2013-01-26 13:44:00,53.3,27.7,30.24,ESE,104,8.0,10.0,37,0.00,,,0.00,VWS V14.00,2013-01-26 19:44:00,
2013-01-26 13:45:00,53.3,28.4,30.24,ESE,116,8.0,11.0,38,0.00,,,0.00,VWS V14.00,2013-01-26 19:45:00,
2013-01-26 13:49:00,53.6,28.0,30.24,East,81,7.0,10.0,37,0.00,,,0.00,VWS V14.00,2013-01-26 19:49:00,
2013-01-26 13:50:00,53.7,28.1,30.24,East,94,5.0,10.0,37,0.00,,,0.00,VWS V14.00,2013-01-26 19:50:00,
2013-01-26 13:54:00,53.9,28.2,30.24,SE,146,7.0,7.0,37,0.00,,,0.00,VWS V14.00,2013-01-26 19:54:00,
2013-01-26 13:55:00,54.1,28.4,30.24,East,95,0.0,7.0,37,0.00,,,0.00,VWS V14.00,2013-01-26 19:55:00,
2013-01-26 13:59:00,54.4,27.3,30.24,East,83,7.0,11.0,35,0.00,,,0.00,VWS V14.00,2013-01-26 19:59:00,
2013-01-26 14:00:00,54.4,28.0,30.24,ENE,75,5.0,11.0,36,0.00,,,0.00,VWS V14.00,2013-01-26 20:00:00,
2013-01-26 14:04:00,54.4,28.7,30.23,ESE,116,7.0,9.0,37,0.00,,,0.00,VWS V14.00,2013-01-26 20:04:00,
2013-01-26 14:05:00,54.4,28.0,30.23,East,91,7.0,11.0,36,0.00,,,0.00,VWS V14.00,2013-01-26 20:05:00,
2013-01-26 14:09:00,54.5,26.7,30.23,ESE,108,4.0,10.0,34,0.00,,,0.00,VWS V14.00,2013-01-26 20:09:00,
2013-01-26 14:10:00,54.5,27.4,30.23,ESE,110,6.0,10.0,35,0.00,,,0.00,VWS V14.00,2013-01-26 20:10:00,
2013-01-26 14:14:00,54.6,27.5,30.23,SE,126,5.0,8.0,35,0.00,,,0.00,VWS V14.00,2013-01-26 20:14:00,
2013-01-26 14:15:00,54.7,27.6,30.23,SE,139,1.0,8.0,35,0.00,,,0.00,VWS V14.00,2013-01-26 20:15:00,
2013-01-26 14:19:00,54.8,26.3,30.23,ESE,112,7.0,10.0,33,0.00,,,0.00,VWS V14.00,2013-01-26 20:19:00,
2013-01-26 14:20:00,54.8,26.3,30.23,SE,126,0.0,10.0,33,0.00,,,0.00,VWS V14.00,2013-01-26 20:20:00,
2013-01-26 14:24:00,54.8,27.0,30.22,ESE,112,5.0,9.0,34,0.00,,,0.00,VWS V14.00,2013-01-26 20:24:00,
2013-01-26 14:25:00,54.9,26.4,30.22,ESE,117,5.0,10.0,33,0.00,,,0.00,VWS V14.00,2013-01-26 20:25:00,
2013-01-26 14:29:00,54.9,26.4,30.22,SE,132,3.0,11.0,33,0.00,,,0.00,VWS V14.00,2013-01-26 20:29:00,
2013-01-26 14:30:00,54.8,26.3,30.22,ESE,110,9.0,11.0,33,0.00,,,0.00,VWS V14.00,2013-01-26 20:30:00,
2013-01-26 14:34:00,54.8,27.0,30.22,ESE,109,3.0,11.0,34,0.00,,,0.00,VWS V14.00,2013-01-26 20:34:00,
2013-01-26 14:35:00,54.9,26.4,30.22,SE,131,7.0,11.0,33,0.00,,,0.00,VWS V14.00,2013-01-26 20:35:00,
2013-01-26 14:39:00,55.0,27.2,30.22,ESE,104,4.0,9.0,34,0.00,,,0.00,VWS V14.00,2013-01-26 20:39:00,
2013-01-26 14:40:00,55.2,27.3,30.22,SE,124,4.0,9.0,34,0.00,,,0.00,VWS V14.00,2013-01-26 20:40:00,
2013-01-26 14:44:00,55.4,26.8,30.22,ESE,106,9.0,9.0,33,0.00,,,0.00,VWS V14.00,2013-01-26 20:44:00,
2013-01-26 14:45:00,55.5,26.9,30.22,ESE,109,11.0,12.0,33,0.00,,,0.00,VWS V14.00,2013-01-26 20:45:00,
2013-01-26 14:49:00,55.7,27.1,30.22,East,94,7.0,11.0,33,0.00,,,0.00,VWS V14.00,2013-01-26 20:49:00,
2013-01-26 14:50:00,55.7,26.3,30.22,East,91,7.0,11.0,32,0.00,,,0.00,VWS V14.00,2013-01-26 20:50:00,
2013-01-26 14:54:00,55.7,26.3,30.22,ESE,121,6.0,11.0,32,0.00,,,0.00,VWS V14.00,2013-01-26 20:54:00,
2013-01-26 14:55:00,55.8,26.4,30.22,ESE,121,8.0,12.0,32,0.00,,,0.00,VWS V14.00,2013-01-26 20:55:00,
2013-01-26 14:59:00,55.6,25.5,30.22,SSE,148,6.0,12.0,31,0.00,,,0.00,VWS V14.00,2013-01-26 20:59:00,
2013-01-26 15:00:00,55.4,25.3,30.22,SE,135,4.0,12.0,31,0.00,,,0.00,VWS V14.00,2013-01-26 21:00:00,
2013-01-26 15:04:00,55.2,25.9,30.22,SE,140,6.0,10.0,32,0.00,,,0.00,VWS V14.00,2013-01-26 21:04:00,
2013-01-26 15:05:00,55.1,25.8,30.22,ESE,121,7.0,10.0,32,0.00,,,0.00,VWS V14.00,2013-01-26 21:05:00,
2013-01-26 15:09:00,54.9,26.4,30.21,ESE,105,6.0,9.0,33,0.00,,,0.00,VWS V14.00,2013-01-26 21:09:00,
2013-01-26 15:10:00,54.9,25.6,30.22,ESE,104,3.0,9.0,32,0.00,,,0.00,VWS V14.00,2013-01-26 21:10:00,
2013-01-26 15:14:00,55.0,25.7,30.21,ESE,122,5.0,10.0,32,0.00,,,0.00,VWS V14.00,2013-01-26 21:14:00,
2013-01-26 15:15:00,55.0,26.4,30.21,ESE,123,2.0,10.0,33,0.00,,,0.00,VWS V14.00,2013-01-26 21:15:00,
2013-01-26 15:19:00,55.1,25.8,30.21,East,100,8.0,12.0,32,0.00,,,0.00,VWS V14.00,2013-01-26 21:19:00,
2013-01-26 15:20:00,55.2,25.1,30.21,ESE,115,1.0,12.0,31,0.00,,,0.00,VWS V14.00,2013-01-26 21:20:00,
2013-01-26 15:24:00,55.4,26.0,30.21,ESE,114,7.0,10.0,32,0.00,,,0.00,VWS V14.00,2013-01-26 21:24:00,
2013-01-26 15:25:00,55.6,25.5,30.22,SE,146,10.0,10.0,31,0.00,,,0.00,VWS V14.00,2013-01-26 21:25:00,
2013-01-26 15:29:00,55.7,26.3,30.22,ENE,63,6.0,10.0,32,0.00,,,0.00,VWS V14.00,2013-01-26 21:29:00,
2013-01-26 15:30:00,55.7,26.3,30.21,East,97,5.0,10.0,32,0.00,,,0.00,VWS V14.00,2013-01-26 21:30:00,
2013-01-26 15:34:00,55.9,25.7,30.22,ESE,109,8.0,14.0,31,0.00,,,0.00,VWS V14.00,2013-01-26 21:34:00,
2013-01-26 15:35:00,55.9,25.7,30.21,ESE,108,9.0,14.0,31,0.00,,,0.00,VWS V14.00,2013-01-26 21:35:00,
2013-01-26 15:39:00,55.7,26.3,30.21,ESE,103,7.0,11.0,32,0.00,,,0.00,VWS V14.00,2013-01-26 21:39:00,
2013-01-26 15:40:00,55.5,26.1,30.21,East,91,1.0,11.0,32,0.00,,,0.00,VWS V14.00,2013-01-26 21:40:00,
2013-01-26 15:44:00,55.0,25.7,30.21,East,95,10.0,12.0,32,0.00,,,0.00,VWS V14.00,2013-01-26 21:44:00,
2013-01-26 15:45:00,54.7,25.4,30.21,ESE,104,9.0,13.0,32,0.00,,,0.00,VWS V14.00,2013-01-26 21:45:00,
2013-01-26 15:49:00,54.4,25.9,30.21,ESE,118,4.0,11.0,33,0.00,,,0.00,VWS V14.00,2013-01-26 21:49:00,
2013-01-26 15:50:00,54.2,25.7,30.21,East,95,9.0,11.0,33,0.00,,,0.00,VWS V14.00,2013-01-26 21:50:00,
2013-01-26 15:54:00,54.1,26.4,30.21,East,95,4.0,11.0,34,0.00,,,0.00,VWS V14.00,2013-01-26 21:54:00,
2013-01-26 15:55:00,54.1,26.4,30.21,East,85,4.0,11.0,34,0.00,,,0.00,VWS V14.00,2013-01-26 21:55:00,
2013-01-26 15:59:00,54.4,26.6,30.21,ESE,113,9.0,10.0,34,0.00,,,0.00,VWS V14.00,2013-01-26 21:59:00,
2013-01-26 16:00:00,54.6,26.8,30.21,East,88,3.0,10.0,34,0.00,,,0.00,VWS V14.00,2013-01-26 22:00:00,
2013-01-26 16:04:00,55.1,25.8,30.21,East,85,8.0,10.0,32,0.00,,,0.00,VWS V14.00,2013-01-26 22:04:00,
2013-01-26 16:05:00,55.3,26.7,30.21,East,99,8.0,10.0,33,0.00,,,0.00,VWS V14.00,2013-01-26 22:05:00,
2013-01-26 16:09:00,55.7,25.5,30.21,East,99,11.0,14.0,31,0.00,,,0.00,VWS V14.00,2013-01-26 22:09:00,
2013-01-26 16:10:00,55.8,25.6,30.20,ESE,114,8.0,14.0,31,0.00,,,0.00,VWS V14.00,2013-01-26 22:10:00,
2013-01-26 16:14:00,55.8,25.6,30.20,SE,137,5.0,11.0,31,0.00,,,0.00,VWS V14.00,2013-01-26 22:14:00,
2013-01-26 16:15:00,55.8,25.6,30.20,ESE,114,8.0,11.0,31,0.00,,,0.00,VWS V14.00,2013-01-26 22:15:00,
2013-01-26 16:19:00,55.8,25.6,30.20,ESE,109,7.0,10.0,31,0.00,,,0.00,VWS V14.00,2013-01-26 22:19:00,
2013-01-26 16:20:00,55.7,26.3,30.20,ESE,110,6.0,10.0,32,0.00,,,0.00,VWS V14.00,2013-01-26 22:20:00,
2013-01-26 16:24:00,55.5,25.4,30.20,SE,131,8.0,15.0,31,0.00,,,0.00,VWS V14.00,2013-01-26 22:24:00,
2013-01-26 16:25:00,55.3,25.2,30.20,ESE,105,3.0,15.0,31,0.00,,,0.00,VWS V14.00,2013-01-26 22:25:00,
2013-01-26 16:29:00,55.0,24.9,30.20,ESE,107,4.0,11.0,31,0.00,,,0.00,VWS V14.00,2013-01-26 22:29:00,
2013-01-26 16:30:00,54.9,24.9,30.20,ESE,122,2.0,11.0,31,0.00,,,0.00,VWS V14.00,2013-01-26 22:30:00,
2013-01-26 16:34:00,54.5,25.3,30.20,SE,131,5.0,9.0,32,0.00,,,0.00,VWS V14.00,2013-01-26 22:34:00,
2013-01-26 16:35:00,54.4,25.2,30.20,ESE,121,6.0,9.0,32,0.00,,,0.00,VWS V14.00,2013-01-26 22:35:00,
2013-01-26 16:39:00,54.1,24.9,30.20,ESE,118,8.0,8.0,32,0.00,,,0.00,VWS V14.00,2013-01-26 22:39:00,
2013-01-26 16:40:00,54.0,25.6,30.20,ESE,120,9.0,11.0,33,0.00,,,0.00,VWS V14.00,2013-01-26 22:40:00,
2013-01-26 16:44:00,53.6,25.2,30.19,ESE,116,6.0,10.0,33,0.00,,,0.00,VWS V14.00,2013-01-26 22:44:00,
2013-01-26 16:45:00,53.5,25.1,30.19,ESE,103,6.0,10.0,33,0.00,,,0.00,VWS V14.00,2013-01-26 22:45:00,
2013-01-26 16:49:00,53.1,24.8,30.19,ESE,112,7.0,11.0,33,0.00,,,0.00,VWS V14.00,2013-01-26 22:49:00,
2013-01-26 16:50:00,53.0,24.7,30.19,ESE,108,4.0,11.0,33,0.00,,,0.00,VWS V14.00,2013-01-26 22:50:00,
2013-01-26 16:54:00,52.7,25.1,30.19,East,99,7.0,7.0,34,0.00,,,0.00,VWS V14.00,2013-01-26 22:54:00,
2013-01-26 16:55:00,52.6,25.0,30.19,ESE,104,3.0,8.0,34,0.00,,,0.00,VWS V14.00,2013-01-26 22:55:00,
2013-01-26 16:59:00,52.3,25.5,30.19,East,101,3.0,8.0,35,0.00,,,0.00,VWS V14.00,2013-01-26 22:59:00,
2013-01-26 17:00:00,52.1,25.3,30.19,East,96,4.0,8.0,35,0.00,,,0.00,VWS V14.00,2013-01-26 23:00:00,
2013-01-26 17:04:00,51.8,25.7,30.19,East,79,8.0,9.0,36,0.00,,,0.00,VWS V14.00,2013-01-26 23:04:00,
2013-01-26 17:05:00,51.7,25.6,30.19,East,94,8.0,9.0,36,0.00,,,0.00,VWS V14.00,2013-01-26 23:05:00,
2013-01-26 17:09:00,51.3,25.3,30.19,East,101,9.0,9.0,36,0.00,,,0.00,VWS V14.00,2013-01-26 23:09:00,
2013-01-26 17:10:00,51.2,25.2,30.19,ENE,72,8.0,10.0,36,0.00,,,0.00,VWS V14.00,2013-01-26 23:10:00,
2013-01-26 17:14:00,50.9,24.9,30.19,East,87,8.0,9.0,36,0.00,,,0.00,VWS V14.00,2013-01-26 23:14:00,
2013-01-26 17:15:00,50.8,24.8,30.19,ESE,108,6.0,9.0,36,0.00,,,0.00,VWS V14.00,2013-01-26 23:15:00,
2013-01-26 17:19:00,50.5,25.2,30.18,East,95,5.0,9.0,37,0.00,,,0.00,VWS V14.00,2013-01-26 23:19:00,
2013-01-26 17:20:00,50.4,25.1,30.18,East,95,7.0,9.0,37,0.00,,,0.00,VWS V14.00,2013-01-26 23:20:00,
2013-01-26 17:24:00,50.0,25.4,30.18,East,95,3.0,10.0,38,0.00,,,0.00,VWS V14.00,2013-01-26 23:24:00,
2013-01-26 17:25:00,49.8,25.2,30.18,East,86,4.0,10.0,38,0.00,,,0.00,VWS V14.00,2013-01-26 23:25:00,
2013-01-26 17:29:00,49.4,24.9,30.18,East,91,3.0,9.0,38,0.00,,,0.00,VWS V14.00,2013-01-26 23:29:00,
2013-01-26 17:30:00,49.3,25.4,30.18,East,96,7.0,9.0,39,0.00,,,0.00,VWS V14.00,2013-01-26 23:30:00,
2013-01-26 17:38:00,48.4,25.8,30.18,ESE,103,4.0,4.0,41,0.00,,,0.00,VWS V14.00,2013-01-26 23:38:00,
2013-01-26 17:40:00,48.1,25.5,30.18,East,89,7.0,9.0,41,0.00,,,0.00,VWS V14.00,2013-01-26 23:40:00,
2013-01-26 17:43:00,47.7,25.8,30.18,East,86,7.0,9.0,42,0.00,,,0.00,VWS V14.00,2013-01-26 23:43:00,
2013-01-26 17:45:00,47.5,26.1,30.18,East,98,7.0,9.0,43,0.00,,,0.00,VWS V14.00,2013-01-26 23:45:00,
2013-01-26 17:48:00,47.3,26.5,30.18,ESE,106,6.0,9.0,44,0.00,,,0.00,VWS V14.00,2013-01-26 23:48:00,
2013-01-26 17:50:00,47.0,26.2,30.18,East,85,7.0,9.0,44,0.00,,,0.00,VWS V14.00,2013-01-26 23:50:00,
2013-01-26 17:53:00,46.7,26.5,30.17,East,85,5.0,10.0,45,0.00,,,0.00,VWS V14.00,2013-01-26 23:53:00,
2013-01-26 17:55:00,46.5,26.9,30.18,East,87,11.0,11.0,46,0.00,,,0.00,VWS V14.00,2013-01-26 23:55:00,
2013-01-26 17:58:00,46.2,26.6,30.17,East,88,5.0,11.0,46,0.00,,,0.00,VWS V14.00,2013-01-26 23:58:00,
2013-01-26 18:00:00,46.0,26.9,30.17,ESE,109,4.0,11.0,47,0.00,,,0.00,VWS V14.00,2013-01-27 00:00:00,
2013-01-26 18:03:00,45.9,26.8,30.18,ENE,65,6.0,10.0,47,0.00,,,0.00,VWS V14.00,2013-01-27 00:03:00,
2013-01-26 18:05:00,45.7,27.1,30.17,ENE,73,5.0,10.0,48,0.00,,,0.00,VWS V14.00,2013-01-27 00:05:00,
2013-01-26 18:08:00,45.5,27.0,30.18,East,85,7.0,8.0,48,0.00,,,0.00,VWS V14.00,2013-01-27 00:08:00,
2013-01-26 18:10:00,45.4,26.9,30.18,East,90,5.0,9.0,48,0.00,,,0.00,VWS V14.00,2013-01-27 00:10:00,
2013-01-26 18:13:00,45.2,27.2,30.18,East,82,7.0,8.0,49,0.00,,,0.00,VWS V14.00,2013-01-27 00:13:00,
2013-01-26 18:15:00,45.2,27.2,30.18,East,83,3.0,8.0,49,0.00,,,0.00,VWS V14.00,2013-01-27 00:15:00,
2013-01-26 18:18:00,45.0,27.0,30.18,East,81,5.0,8.0,49,0.00,,,0.00,VWS V14.00,2013-01-27 00:18:00,
2013-01-26 18:20:00,44.9,26.9,30.18,East,96,8.0,9.0,49,0.00,,,0.00,VWS V14.00,2013-01-27 00:20:00,
2013-01-26 18:23:00,44.8,26.8,30.18,ENE,71,6.0,8.0,49,0.00,,,0.00,VWS V14.00,2013-01-27 00:23:00,
2013-01-26 18:25:00,44.7,26.7,30.18,East,81,5.0,8.0,49,0.00,,,0.00,VWS V14.00,2013-01-27 00:25:00,
2013-01-26 18:28:00,44.6,27.1,30.18,East,82,4.0,8.0,50,0.00,,,0.00,VWS V14.00,2013-01-27 00:28:00,
2013-01-26 18:30:00,44.5,27.0,30.18,ENE,78,8.0,8.0,50,0.00,,,0.00,VWS V14.00,2013-01-27 00:30:00,
2013-01-26 18:33:00,44.3,26.9,30.18,East,84,4.0,9.0,50,0.00,,,0.00,VWS V14.00,2013-01-27 00:33:00,
2013-01-26 18:35:00,44.3,26.9,30.18,ENE,72,5.0,9.0,50,0.00,,,0.00,VWS V14.00,2013-01-27 00:35:00,
2013-01-26 18:38:00,44.1,27.1,30.18,ENE,66,5.0,8.0,51,0.00,,,0.00,VWS V14.00,2013-01-27 00:38:00,
2013-01-26 18:40:00,43.9,27.0,30.18,East,89,3.0,8.0,51,0.00,,,0.00,VWS V14.00,2013-01-27 00:40:00,
2013-01-26 18:43:00,43.7,26.8,30.18,East,87,4.0,10.0,51,0.00,,,0.00,VWS V14.00,2013-01-27 00:43:00,
2013-01-26 18:45:00,43.5,26.6,30.18,East,89,8.0,10.0,51,0.00,,,0.00,VWS V14.00,2013-01-27 00:45:00,
2013-01-26 18:48:00,43.4,27.0,30.18,East,97,4.0,9.0,52,0.00,,,0.00,VWS V14.00,2013-01-27 00:48:00,
2013-01-26 18:50:00,43.3,26.9,30.18,East,88,5.0,9.0,52,0.00,,,0.00,VWS V14.00,2013-01-27 00:50:00,
2013-01-26 18:53:00,43.1,26.7,30.18,East,85,7.0,8.0,52,0.00,,,0.00,VWS V14.00,2013-01-27 00:53:00,
2013-01-26 18:55:00,42.9,27.0,30.18,East,87,7.0,8.0,53,0.00,,,0.00,VWS V14.00,2013-01-27 00:55:00,
2013-01-26 19:03:00,42.4,27.0,30.18,East,89,8.0,8.0,54,0.00,,,0.00,VWS V14.00,2013-01-27 01:03:00,
2013-01-26 19:05:00,42.3,26.9,30.18,East,95,5.0,9.0,54,0.00,,,0.00,VWS V14.00,2013-01-27 01:05:00,
2013-01-26 19:08:00,42.1,26.7,30.18,East,87,8.0,9.0,54,0.00,,,0.00,VWS V14.00,2013-01-27 01:08:00,
2013-01-26 19:10:00,41.9,26.5,30.18,East,89,4.0,10.0,54,0.00,,,0.00,VWS V14.00,2013-01-27 01:10:00,
2013-01-26 19:13:00,41.7,26.7,30.18,East,94,8.0,10.0,55,0.00,,,0.00,VWS V14.00,2013-01-27 01:13:00,
2013-01-26 19:15:00,41.6,26.6,30.18,ESE,104,9.0,10.0,55,0.00,,,0.00,VWS V14.00,2013-01-27 01:15:00,
2013-01-26 19:18:00,41.6,26.6,30.18,East,91,9.0,11.0,55,0.00,,,0.00,VWS V14.00,2013-01-27 01:18:00,
2013-01-26 19:20:00,41.5,26.5,30.18,East,97,12.0,12.0,55,0.00,,,0.00,VWS V14.00,2013-01-27 01:20:00,
2013-01-26 19:23:00,41.5,26.5,30.18,ENE,63,6.0,12.0,55,0.00,,,0.00,VWS V14.00,2013-01-27 01:23:00,
2013-01-26 19:25:00,41.4,26.5,30.18,ENE,59,7.0,12.0,55,0.00,,,0.00,VWS V14.00,2013-01-27 01:25:00,
2013-01-26 19:28:00,41.4,26.5,30.18,East,96,7.0,11.0,55,0.00,,,0.00,VWS V14.00,2013-01-27 01:28:00,
2013-01-26 19:30:00,41.4,26.5,30.18,East,92,11.0,13.0,55,0.00,,,0.00,VWS V14.00,2013-01-27 01:30:00,
2013-01-26 19:33:00,41.4,26.5,30.18,East,81,4.0,11.0,55,0.00,,,0.00,VWS V14.00,2013-01-27 01:33:00,
2013-01-26 19:35:00,41.3,26.8,30.18,East,99,8.0,11.0,56,0.00,,,0.00,VWS V14.00,2013-01-27 01:35:00,
2013-01-26 19:38:00,41.3,26.8,30.18,ENE,70,7.0,12.0,56,0.00,,,0.00,VWS V14.00,2013-01-27 01:38:00,
2013-01-26 19:40:00,41.2,26.7,30.18,East,95,8.0,12.0,56,0.00,,,0.00,VWS V14.00,2013-01-27 01:40:00,
2013-01-26 19:43:00,41.2,26.7,30.18,East,91,11.0,12.0,56,0.00,,,0.00,VWS V14.00,2013-01-27 01:43:00,
2013-01-26 19:45:00,41.2,26.7,30.18,East,101,9.0,12.0,56,0.00,,,0.00,VWS V14.00,2013-01-27 01:45:00,
2013-01-26 19:48:00,41.2,26.7,30.18,East,85,7.0,9.0,56,0.00,,,0.00,VWS V14.00,2013-01-27 01:48:00,
2013-01-26 19:50:00,41.3,26.8,30.19,ESE,110,7.0,12.0,56,0.00,,,0.00,VWS V14.00,2013-01-27 01:50:00,
2013-01-26 19:53:00,41.2,26.7,30.18,East,95,8.0,11.0,56,0.00,,,0.00,VWS V14.00,2013-01-27 01:53:00,
2013-01-26 19:55:00,41.1,26.6,30.18,East,99,9.0,11.0,56,0.00,,,0.00,VWS V14.00,2013-01-27 01:55:00,
2013-01-26 19:58:00,41.1,26.6,30.18,East,100,5.0,11.0,56,0.00,,,0.00,VWS V14.00,2013-01-27 01:58:00,
2013-01-26 20:00:00,41.0,26.5,30.18,East,95,7.0,11.0,56,0.00,,,0.00,VWS V14.00,2013-01-27 02:00:00,
2013-01-26 20:03:00,40.9,26.4,30.18,East,93,9.0,11.0,56,0.00,,,0.00,VWS V14.00,2013-01-27 02:03:00,
2013-01-26 20:05:00,40.9,26.4,30.18,East,89,8.0,11.0,56,0.00,,,0.00,VWS V14.00,2013-01-27 02:05:00,
2013-01-26 20:13:00,40.5,26.5,30.18,ESE,111,6.0,6.0,57,0.00,,,0.00,VWS V14.00,2013-01-27 02:13:00,
2013-01-26 20:18:00,40.4,26.4,30.18,East,93,7.0,14.0,57,0.00,,,0.00,VWS V14.00,2013-01-27 02:18:00,
2013-01-26 20:23:00,40.4,26.4,30.18,East,91,5.0,11.0,57,0.00,,,0.00,VWS V14.00,2013-01-27 02:23:00,
2013-01-26 20:28:00,40.4,26.0,30.18,East,100,12.0,13.0,56,0.00,,,0.00,VWS V14.00,2013-01-27 02:28:00,
2013-01-26 20:33:00,40.6,26.1,30.18,ESE,108,5.0,12.0,56,0.00,,,0.00,VWS V14.00,2013-01-27 02:33:00,
2013-01-26 20:38:00,40.5,26.5,30.18,East,89,8.0,11.0,57,0.00,,,0.00,VWS V14.00,2013-01-27 02:38:00,
2013-01-26 20:43:00,40.4,26.0,30.17,ESE,115,7.0,12.0,56,0.00,,,0.00,VWS V14.00,2013-01-27 02:43:00,
2013-01-26 20:48:00,40.3,25.9,30.17,East,100,9.0,13.0,56,0.00,,,0.00,VWS V14.00,2013-01-27 02:48:00,
2013-01-26 20:53:00,40.3,26.3,30.18,East,95,7.0,11.0,57,0.00,,,0.00,VWS V14.00,2013-01-27 02:53:00,
2013-01-26 20:58:00,40.3,25.9,30.17,East,89,4.0,11.0,56,0.00,,,0.00,VWS V14.00,2013-01-27 02:58:00,
2013-01-26 21:03:00,40.5,26.0,30.17,East,81,7.0,12.0,56,0.00,,,0.00,VWS V14.00,2013-01-27 03:03:00,
2013-01-26 21:08:00,40.5,26.0,30.17,East,101,9.0,11.0,56,0.00,,,0.00,VWS V14.00,2013-01-27 03:08:00,
2013-01-26 21:13:00,40.4,26.0,30.17,ESE,108,8.0,11.0,56,0.00,,,0.00,VWS V14.00,2013-01-27 03:13:00,
2013-01-26 21:18:00,40.4,26.0,30.17,ESE,102,10.0,13.0,56,0.00,,,0.00,VWS V14.00,2013-01-27 03:18:00,
2013-01-26 21:23:00,40.6,25.7,30.17,ESE,106,6.0,11.0,55,0.00,,,0.00,VWS V14.00,2013-01-27 03:23:00,
2013-01-26 21:28:00,40.6,25.7,30.17,East,95,4.0,12.0,55,0.00,,,0.00,VWS V14.00,2013-01-27 03:28:00,
2013-01-26 21:33:00,40.5,26.0,30.17,East,99,5.0,11.0,56,0.00,,,0.00,VWS V14.00,2013-01-27 03:33:00,
2013-01-26 21:38:00,40.4,26.0,30.17,SE,125,6.0,10.0,56,0.00,,,0.00,VWS V14.00,2013-01-27 03:38:00,
2013-01-26 21:43:00,40.3,25.9,30.17,East,101,5.0,11.0,56,0.00,,,0.00,VWS V14.00,2013-01-27 03:43:00,
2013-01-26 21:48:00,40.4,25.5,30.17,ESE,107,5.0,10.0,55,0.00,,,0.00,VWS V14.00,2013-01-27 03:48:00,
2013-01-26 21:53:00,40.5,25.6,30.17,ESE,116,6.0,13.0,55,0.00,,,0.00,VWS V14.00,2013-01-27 03:53:00,
2013-01-26 21:58:00,40.6,25.7,30.16,ESE,118,4.0,13.0,55,0.00,,,0.00,VWS V14.00,2013-01-27 03:58:00,
2013-01-26 22:03:00,40.6,25.3,30.16,East,97,8.0,12.0,54,0.00,,,0.00,VWS V14.00,2013-01-27 04:03:00,
2013-01-26 22:08:00,40.6,25.3,30.16,SE,124,3.0,13.0,54,0.00,,,0.00,VWS V14.00,2013-01-27 04:08:00,
2013-01-26 22:15:00,40.6,25.3,30.15,ESE,112,8.0,13.0,54,0.00,,,0.00,VWS V14.00,2013-01-27 04:15:00,
2013-01-26 22:20:00,40.6,25.3,30.15,ESE,112,7.0,12.0,54,0.00,,,0.00,VWS V14.00,2013-01-27 04:20:00,
2013-01-26 22:25:00,40.7,24.9,30.15,ESE,112,7.0,12.0,53,0.00,,,0.00,VWS V14.00,2013-01-27 04:25:00,
2013-01-26 22:30:00,40.8,25.0,30.16,ESE,112,7.0,12.0,53,0.00,,,0.00,VWS V14.00,2013-01-27 04:30:00,
2013-01-26 22:35:00,40.7,24.9,30.15,ESE,112,7.0,11.0,53,0.00,,,0.00,VWS V14.00,2013-01-27 04:35:00,
2013-01-26 22:40:00,40.6,24.8,30.15,ESE,112,8.0,13.0,53,0.00,,,0.00,VWS V14.00,2013-01-27 04:40:00,
2013-01-26 22:45:00,40.6,24.8,30.15,ESE,112,8.0,13.0,53,0.00,,,0.00,VWS V14.00,2013-01-27 04:45:00,
2013-01-26 22:50:00,40.6,24.8,30.15,ESE,112,7.0,11.0,53,0.00,,,0.00,VWS V14.00,2013-01-27 04:50:00,
2013-01-26 22:55:00,40.7,24.9,30.15,ESE,112,8.0,13.0,53,0.00,,,0.00,VWS V14.00,2013-01-27 04:55:00,
2013-01-26 23:00:00,40.9,25.1,30.16,ESE,112,6.0,12.0,53,0.00,,,0.00,VWS V14.00,2013-01-27 05:00:00,
2013-01-26 23:05:00,40.9,25.1,30.15,ESE,112,7.0,11.0,53,0.00,,,0.00,VWS V14.00,2013-01-27 05:05:00,
2013-01-26 23:10:00,41.0,25.2,30.15,ESE,112,6.0,11.0,53,0.00,,,0.00,VWS V14.00,2013-01-27 05:10:00,
2013-01-26 23:15:00,41.2,25.4,30.15,ESE,112,7.0,12.0,53,0.00,,,0.00,VWS V14.00,2013-01-27 05:15:00,
2013-01-26 23:20:00,41.5,25.7,30.14,ESE,112,6.0,11.0,53,0.00,,,0.00,VWS V14.00,2013-01-27 05:20:00,
2013-01-26 23:25:00,41.8,25.5,30.15,SE,135,4.0,8.0,52,0.00,,,0.00,VWS V14.00,2013-01-27 05:25:00,
2013-01-26 23:30:00,42.1,25.3,30.14,ESE,112,8.0,14.0,51,0.00,,,0.00,VWS V14.00,2013-01-27 05:30:00,
2013-01-26 23:35:00,42.6,25.3,30.14,ESE,112,7.0,13.0,50,0.00,,,0.00,VWS V14.00,2013-01-27 05:35:00,
2013-01-26 23:40:00,43.0,25.2,30.14,ESE,112,6.0,12.0,49,0.00,,,0.00,VWS V14.00,2013-01-27 05:40:00,
2013-01-26 23:45:00,43.3,25.4,30.14,SE,135,6.0,12.0,49,0.00,,,0.00,VWS V14.00,2013-01-27 05:45:00,
2013-01-26 23:50:00,43.5,25.6,30.15,SE,135,6.0,11.0,49,0.00,,,0.00,VWS V14.00,2013-01-27 05:50:00,
2013-01-26 23:55:00,43.8,25.9,30.14,SE,135,6.0,13.0,49,0.00,,,0.00,VWS V14.00,2013-01-27 05:55:00,